Weather History for Garden City, KS

Change the Weather History Date:

Sunday, July 14, 2013

  Actual Average Record
Temperature  
Mean Temperature 73 °F 78 °F  
Max Temperature 83 °F 92 °F 108 °F (2003)
Min Temperature 62 °F 65 °F 48 °F (1990)
Degree Days  
Heating Degree Days 0 0  
Month to date heating degree days 0 0  
Since 1 June heating degree days 12 16  
Since 1 July heating degree days 0 0  
Cooling Degree Days 8 13  
Month to date cooling degree days 226 179  
Year to date cooling degree days 764 520  
Since 1 June cooling degree days 617 431  
Growing Degree Days 23 (Base 50)    
Moisture  
Dew Point 57 °F    
Average Humidity 59    
Maximum Humidity 87    
Minimum Humidity 31    
Precipitation  
Precipitation T in 0.09 in 1.16 in (1994)
Month to date precipitation 0.01 1.29  
Year to date precipitation 3.72 11.71  
Sea Level Pressure  
Sea Level Pressure 29.92 in    
Wind  
Wind Speed 13 mph (SSE)    
Max Wind Speed 26 mph    
Max Gust Speed 32 mph    
Visibility 10 miles    
Events Rain    
T = Trace of Precipitation, MM = Missing Value Source: NWS Daily Summary

Daily Weather History Graph

Daily Weather History Graph

Search for Another Location

Airport:

Trip Planner

Search our weather history database for the weather conditions in past years. The results will help you decide how hot, cold, wet, or windy it might be!

Date:

Astronomy

Jul. 14, 2013 Rise Set
Actual Time 6:32 AM CDT 9:05 PM CDT
Civil Twilight 6:01 AM CDT 9:35 PM CDT
Nautical Twilight 5:23 AM CDT 10:13 PM CDT
Astronomical Twilight 4:41 AM CDT 10:55 PM CDT
Moon 12:43 PM CDT (7/14) No Moon Set
Length of Visible Light 15h 34m
Length of Day
14h 33m
Waxing Crescent, 35% of the Moon is Illuminated
Jul 14
Waxing Crescent
Jul 15
First Quarter
Jul 22
Full
Jul 29
Last Quarter
Aug 6
New

Hourly Weather History & Observations

Time (CDT) Temp. Heat Index Dew Point Humidity Pressure Visibility Wind Dir Wind Speed Gust Speed Precip Events Conditions
12:54 AM 79.0 °F - 50.0 °F 36% 29.82 in 10.0 mi SE 10.4 mph - N/A   Clear
1:54 AM 82.0 °F - 48.9 °F 31% 29.85 in 10.0 mi West 5.8 mph - N/A   Clear
2:54 AM 80.1 °F - 48.9 °F 34% 29.83 in 10.0 mi SE 8.1 mph - N/A   Clear
3:54 AM 78.1 °F - 50.0 °F 37% 29.83 in 10.0 mi NNW 12.7 mph 18.4 mph N/A   Clear
4:54 AM 77.0 °F - 51.1 °F 40% 29.81 in 10.0 mi Calm Calm - N/A   Clear
5:54 AM 75.9 °F - 55.0 °F 48% 29.83 in 10.0 mi North 6.9 mph - N/A   Clear
6:54 AM 77.0 °F - 61.0 °F 58% 29.82 in 10.0 mi NNE 13.8 mph - N/A   Clear
7:54 AM 77.0 °F - 61.0 °F 58% 29.82 in 10.0 mi NE 12.7 mph - N/A   Clear
8:54 AM 73.9 °F - 62.1 °F 66% 29.87 in 8.0 mi ESE 19.6 mph - N/A   Clear
9:54 AM 75.0 °F - 62.1 °F 64% 29.90 in 9.0 mi SE 20.7 mph - N/A   Scattered Clouds
10:54 AM 75.9 °F - 59.0 °F 56% 29.91 in 10.0 mi South 12.7 mph 21.9 mph N/A   Partly Cloudy
11:54 AM 78.1 °F - 55.9 °F 46% 29.93 in 10.0 mi South 19.6 mph 24.2 mph N/A   Partly Cloudy
12:54 PM 79.0 °F - 55.9 °F 45% 29.92 in 10.0 mi South 15.0 mph - N/A   Mostly Cloudy
1:54 PM 79.0 °F - 55.9 °F 45% 29.91 in 10.0 mi South 17.3 mph - N/A   Clear
2:54 PM 80.1 °F 80.6 °F 57.9 °F 47% 29.93 in 10.0 mi SE 19.6 mph 27.6 mph N/A   Mostly Cloudy
3:54 PM 81.0 °F 81.1 °F 57.9 °F 45% 29.93 in 10.0 mi SSE 11.5 mph 24.2 mph N/A   Overcast
4:54 PM 77.0 °F - 59.0 °F 54% 29.93 in 9.0 mi South 16.1 mph 23.0 mph 0.00 in Rain Light Rain
5:54 PM 73.0 °F - 59.0 °F 61% 29.97 in 10.0 mi SE 24.2 mph 31.1 mph 0.00 in   Overcast
6:54 PM 72.0 °F - 60.1 °F 66% 29.98 in 10.0 mi SE 21.9 mph 29.9 mph N/A   Overcast
7:54 PM 70.0 °F - 61.0 °F 73% 30.01 in 10.0 mi SE 18.4 mph - N/A   Overcast
8:54 PM 68.0 °F - 61.0 °F 78% 30.02 in 10.0 mi SSE 15.0 mph - N/A   Mostly Cloudy
9:54 PM 64.9 °F - 61.0 °F 87% 30.05 in 10.0 mi South 5.8 mph - N/A   Partly Cloudy
10:54 PM 64.9 °F - 61.0 °F 87% 30.07 in 10.0 mi South 3.5 mph - N/A   Mostly Cloudy
11:54 PM 64.0 °F - 60.1 °F 87% 30.09 in 10.0 mi East 4.6 mph - N/A   Clear